• In Uzbekistan
  • List of Countries
  • For 7 days
  • Water Temperature
  • Satellite Maps
  • Weather Map
  • Weather Widgets
  • user-avatar
    Login

    Hourly Weather Sassandra

    Today, 14 December, Thursday

    Time Temperature Precipitation Wind Pressure Humidity
    00:00 +28°C° 0 mm 2 mps 757 mmHg 90%
    01:00 +28°C° 0 mm 2 mps 757 mmHg 91%
    02:00 +27°C° 0 mm 2 mps 756 mmHg 92%
    03:00 +27°C° 0 mm 2 mps 756 mmHg 93%
    04:00 +27°C° 0 mm 2 mps 756 mmHg 93%
    05:00 +27°C° 0 mm 2 mps 757 mmHg 93%
    06:00 +27°C° 0 mm 2 mps 757 mmHg 93%
    07:00 +28°C° 0.1 mm 2 mps 757 mmHg 86%
    08:00 +30°C° 0.1 mm 2 mps 757 mmHg 79%
    09:00 +31°C° 0.1 mm 2 mps 758 mmHg 72%
    10:00 +32°C° 0.1 mm 2 mps 757 mmHg 67%
    11:00 +34°C° 0.1 mm 2 mps 757 mmHg 62%
    12:00 +35°C° 0.1 mm 2 mps 757 mmHg 58%
    13:00 +34°C° 0.2 mm 3 mps 756 mmHg 59%
    14:00 +34°C° 0.2 mm 3 mps 756 mmHg 61%
    15:00 +33°C° 0.2 mm 3 mps 755 mmHg 63%
    16:00 +31°C° 0.1 mm 3 mps 755 mmHg 69%
    17:00 +30°C° 0.1 mm 3 mps 755 mmHg 75%
    18:00 +29°C° 0.1 mm 3 mps 756 mmHg 81%
    19:00 +29°C° 0 mm 3 mps 756 mmHg 82%
    20:00 +28°C° 0 mm 3 mps 757 mmHg 84%
    21:00 +28°C° 0 mm 3 mps 758 mmHg 86%
    22:00 +28°C° 0 mm 3 mps 757 mmHg 86%
    23:00 +28°C° 0 mm 3 mps 757 mmHg 87%

    Tomorrow, 15 December, Friday

    Time Temperature Precipitation Wind Pressure Humidity
    00:00 +28°C° 0 mm 3 mps 757 mmHg 88%
    01:00 +28°C° 0 mm 3 mps 757 mmHg 89%
    02:00 +27°C° 0 mm 3 mps 756 mmHg 90%
    03:00 +27°C° 0 mm 3 mps 756 mmHg 91%
    04:00 +27°C° 0 mm 3 mps 756 mmHg 92%
    05:00 +27°C° 0 mm 3 mps 756 mmHg 92%
    06:00 +27°C° 0 mm 3 mps 757 mmHg 93%
    07:00 +29°C° 0 mm 3 mps 757 mmHg 86%
    08:00 +30°C° 0 mm 3 mps 758 mmHg 79%
    09:00 +31°C° 0 mm 3 mps 758 mmHg 72%
    10:00 +33°C° 0.1 mm 3 mps 758 mmHg 69%
    11:00 +34°C° 0.1 mm 3 mps 757 mmHg 66%
    12:00 +34°C° 0.1 mm 3 mps 757 mmHg 63%
    13:00 +34°C° 0.4 mm 3 mps 756 mmHg 64%
    14:00 +34°C° 0.4 mm 3 mps 756 mmHg 65%
    15:00 +33°C° 0.4 mm 4 mps 755 mmHg 67%
    16:00 +31°C° 0.7 mm 3 mps 755 mmHg 73%
    17:00 +30°C° 0.7 mm 3 mps 756 mmHg 78%
    18:00 +29°C° 0.7 mm 3 mps 756 mmHg 84%
    19:00 +29°C° 0 mm 3 mps 756 mmHg 85%
    20:00 +28°C° 0 mm 3 mps 757 mmHg 86%
    21:00 +28°C° 0 mm 3 mps 757 mmHg 87%
    22:00 +28°C° 0 mm 3 mps 757 mmHg 88%
    23:00 +28°C° 0 mm 3 mps 757 mmHg 88%

    Day after tomorrow, 16 December, Saturday

    Time Temperature Precipitation Wind Pressure Humidity
    00:00 +28°C° 0 mm 3 mps 756 mmHg 89%
    01:00 +28°C° 0.6 mm 3 mps 756 mmHg 89%
    02:00 +28°C° 0.6 mm 3 mps 756 mmHg 90%
    03:00 +27°C° 0.6 mm 3 mps 755 mmHg 90%
    04:00 +27°C° 1.5 mm 3 mps 756 mmHg 90%
    05:00 +27°C° 1.5 mm 3 mps 756 mmHg 90%
    06:00 +27°C° 1.5 mm 2 mps 756 mmHg 90%
    07:00 +29°C° 0.6 mm 3 mps 757 mmHg 84%
    08:00 +30°C° 0.6 mm 3 mps 758 mmHg 77%
    09:00 +31°C° 0.6 mm 3 mps 758 mmHg 70%
    10:00 +33°C° 0.2 mm 3 mps 758 mmHg 66%
    11:00 +34°C° 0.2 mm 3 mps 757 mmHg 63%
    12:00 +35°C° 0.2 mm 3 mps 757 mmHg 59%
    13:00 +34°C° 0.3 mm 3 mps 756 mmHg 62%
    14:00 +33°C° 0.3 mm 4 mps 756 mmHg 65%
    15:00 +33°C° 0.3 mm 4 mps 755 mmHg 68%
    16:00 +32°C° 0.5 mm 4 mps 755 mmHg 74%
    17:00 +30°C° 0.5 mm 3 mps 756 mmHg 79%
    18:00 +28°C° 0.5 mm 3 mps 756 mmHg 84%
    19:00 +28°C° 0.1 mm 3 mps 757 mmHg 85%
    20:00 +28°C° 0.1 mm 3 mps 757 mmHg 86%
    21:00 +28°C° 0.1 mm 3 mps 758 mmHg 88%
    22:00 +28°C° 0.3 mm 3 mps 757 mmHg 88%
    23:00 +28°C° 0.3 mm 3 mps 757 mmHg 89%

    17 December, Sunday

    Time Temperature Precipitation Wind Pressure Humidity
    00:00 +28°C° 0.3 mm 3 mps 757 mmHg 89%
    01:00 +27°C° 0.5 mm 3 mps 757 mmHg 89%
    02:00 +27°C° 0.5 mm 3 mps 756 mmHg 90%
    03:00 +27°C° 0.5 mm 3 mps 756 mmHg 91%
    04:00 +27°C° 0.1 mm 3 mps 756 mmHg 91%
    05:00 +27°C° 0.1 mm 3 mps 756 mmHg 91%
    06:00 +27°C° 0.1 mm 2 mps 757 mmHg 91%
    07:00 +28°C° 0 mm 2 mps 757 mmHg 86%
    08:00 +29°C° 0 mm 2 mps 757 mmHg 81%
    09:00 +31°C° 0 mm 2 mps 758 mmHg 76%
    10:00 +31°C° 0.1 mm 2 mps 757 mmHg 73%
    11:00 +33°C° 0.1 mm 3 mps 757 mmHg 69%
    12:00 +34°C° 0.1 mm 3 mps 756 mmHg 65%
    13:00 +33°C° 1 mm 3 mps 756 mmHg 67%
    14:00 +33°C° 1 mm 3 mps 755 mmHg 70%
    15:00 +31°C° 1 mm 3 mps 755 mmHg 72%
    16:00 +30°C° 0.4 mm 3 mps 755 mmHg 76%
    17:00 +29°C° 0.4 mm 3 mps 756 mmHg 80%
    18:00 +29°C° 0.4 mm 3 mps 756 mmHg 84%
    19:00 +28°C° 0 mm 3 mps 757 mmHg 86%
    20:00 +28°C° 0 mm 3 mps 757 mmHg 87%
    21:00 +28°C° 0 mm 3 mps 758 mmHg 88%
    22:00 +28°C° 0 mm 3 mps 757 mmHg 90%
    23:00 +28°C° 0 mm 3 mps 757 mmHg 91%

    18 December, Monday

    Time Temperature Precipitation Wind Pressure Humidity
    00:00 +28°C° 0 mm 3 mps 757 mmHg 92%
    01:00 +28°C° 0 mm 3 mps 756 mmHg 92%
    02:00 +27°C° 0 mm 3 mps 756 mmHg 93%
    03:00 +27°C° 0 mm 3 mps 756 mmHg 93%
    04:00 +27°C° 0 mm 3 mps 756 mmHg 93%
    05:00 +27°C° 0 mm 3 mps 756 mmHg 93%
    06:00 +27°C° 0 mm 3 mps 757 mmHg 93%
    07:00 +29°C° 0 mm 3 mps 757 mmHg 87%
    08:00 +30°C° 0 mm 3 mps 758 mmHg 81%
    09:00 +31°C° 0 mm 3 mps 758 mmHg 75%
    10:00 +33°C° 0.4 mm 3 mps 758 mmHg 72%
    11:00 +33°C° 0.4 mm 3 mps 757 mmHg 69%
    12:00 +34°C° 0.4 mm 3 mps 757 mmHg 66%
    13:00 +33°C° 0.5 mm 3 mps 756 mmHg 68%
    14:00 +33°C° 0.5 mm 3 mps 756 mmHg 70%
    15:00 +33°C° 0.5 mm 3 mps 755 mmHg 72%
    16:00 +31°C° 0.5 mm 3 mps 755 mmHg 76%
    17:00 +30°C° 0.5 mm 3 mps 756 mmHg 81%
    18:00 +29°C° 0.5 mm 2 mps 756 mmHg 85%
    19:00 +29°C° 0 mm 2 mps 757 mmHg 87%
    20:00 +28°C° 0 mm 2 mps 757 mmHg 88%
    21:00 +28°C° 0 mm 2 mps 757 mmHg 89%
    22:00 +28°C° 0 mm 2 mps 757 mmHg 90%
    23:00 +28°C° 0 mm 2 mps 757 mmHg 91%

    19 December, Tuesday

    Time Temperature Precipitation Wind Pressure Humidity
    00:00 +28°C° 0 mm 2 mps 757 mmHg 91%
    01:00 +28°C° 0 mm 2 mps 756 mmHg 91%
    02:00 +27°C° 0 mm 2 mps 756 mmHg 92%
    03:00 +27°C° 0 mm 2 mps 756 mmHg 92%
    04:00 +27°C° 0 mm 2 mps 756 mmHg 92%
    05:00 +27°C° 0 mm 2 mps 756 mmHg 92%
    06:00 +27°C° 0 mm 2 mps 757 mmHg 93%
    07:00 +29°C° 0 mm 3 mps 757 mmHg 86%
    08:00 +30°C° 0 mm 3 mps 757 mmHg 80%
    09:00 +31°C° 0 mm 3 mps 758 mmHg 74%
    10:00 +33°C° 0.6 mm 3 mps 757 mmHg 72%
    11:00 +33°C° 0.6 mm 3 mps 757 mmHg 70%
    12:00 +34°C° 0.6 mm 3 mps 756 mmHg 67%
    13:00 +33°C° 0.9 mm 4 mps 756 mmHg 69%
    14:00 +33°C° 0.9 mm 4 mps 755 mmHg 71%
    15:00 +32°C° 0.9 mm 4 mps 755 mmHg 73%
    16:00 +30°C° 0.3 mm 3 mps 755 mmHg 77%
    17:00 +30°C° 0.3 mm 3 mps 756 mmHg 81%
    18:00 +29°C° 0.3 mm 3 mps 756 mmHg 85%
    19:00 +28°C° 0 mm 2 mps 757 mmHg 86%
    20:00 +28°C° 0 mm 2 mps 757 mmHg 87%
    21:00 +28°C° 0 mm 2 mps 757 mmHg 88%
    22:00 +28°C° 0 mm 2 mps 757 mmHg 89%
    23:00 +28°C° 0 mm 2 mps 757 mmHg 90%
    Show more